Time,TemperatureF,DewpointF,PressureIn,WindDirection,WindDirectionDegrees,WindSpeedMPH,WindSpeedGustMPH,Humidity,HourlyPrecipIn,Conditions,Clouds,dailyrainin,SoftwareType,DateUTC
2013-02-11 00:05:00,40.0,35.3,29.46,SW,225,5.0,12.0,83,0.00,,,0.00,Wunderground v.1.15,2013-02-11 06:05:00,
2013-02-11 00:10:00,39.8,35.1,29.47,WSW,248,5.0,12.0,83,0.00,,,0.00,Wunderground v.1.15,2013-02-11 06:10:00,
2013-02-11 00:16:00,39.8,34.8,29.47,NW,322,9.0,10.0,82,0.00,,,0.00,Wunderground v.1.15,2013-02-11 06:16:00,
2013-02-11 00:21:00,39.8,34.8,29.46,WSW,246,7.0,8.0,82,0.00,,,0.00,Wunderground v.1.15,2013-02-11 06:21:00,
2013-02-11 00:26:00,39.7,34.7,29.47,SW,234,15.0,16.0,82,0.00,,,0.00,Wunderground v.1.15,2013-02-11 06:26:00,
2013-02-11 00:31:00,39.5,34.5,29.46,West,276,4.0,7.0,82,0.00,,,0.00,Wunderground v.1.15,2013-02-11 06:31:00,
2013-02-11 00:36:00,39.4,34.4,29.46,WSW,238,8.0,14.0,82,0.00,,,0.00,Wunderground v.1.15,2013-02-11 06:36:00,
2013-02-11 00:41:00,39.3,34.3,29.46,West,275,5.0,7.0,82,0.00,,,0.00,Wunderground v.1.15,2013-02-11 06:41:00,
2013-02-11 00:46:00,39.1,34.4,29.46,SW,232,3.0,15.0,83,0.00,,,0.00,Wunderground v.1.15,2013-02-11 06:46:00,
2013-02-11 00:51:00,38.9,34.2,29.46,WNW,289,6.0,8.0,83,0.00,,,0.00,Wunderground v.1.15,2013-02-11 06:51:00,
2013-02-11 00:56:00,38.7,34.3,29.46,WSW,255,13.0,13.0,84,0.00,,,0.00,Wunderground v.1.15,2013-02-11 06:56:00,
2013-02-11 01:01:00,38.5,34.1,29.46,SSW,205,16.0,16.0,84,0.00,,,0.00,Wunderground v.1.15,2013-02-11 07:01:00,
2013-02-11 01:06:00,38.3,33.9,29.46,South,184,4.0,16.0,84,0.00,,,0.00,Wunderground v.1.15,2013-02-11 07:06:00,
2013-02-11 01:12:00,38.1,33.7,29.46,WSW,252,12.0,12.0,84,0.00,,,0.00,Wunderground v.1.15,2013-02-11 07:12:00,
2013-02-11 01:18:00,37.9,33.2,29.46,West,259,15.0,16.0,83,0.00,,,0.00,Wunderground v.1.15,2013-02-11 07:18:00,
2013-02-11 01:23:00,37.9,33.2,29.46,SW,215,16.0,16.0,83,0.00,,,0.00,Wunderground v.1.15,2013-02-11 07:23:00,
2013-02-11 01:28:00,37.7,33.0,29.46,West,279,5.0,29.0,83,0.00,,,0.00,Wunderground v.1.15,2013-02-11 07:28:00,
2013-02-11 01:33:00,37.6,33.2,29.46,NW,324,5.0,14.0,84,0.00,,,0.00,Wunderground v.1.15,2013-02-11 07:33:00,
2013-02-11 01:39:00,37.4,33.0,29.46,West,275,6.0,14.0,84,0.00,,,0.00,Wunderground v.1.15,2013-02-11 07:39:00,
2013-02-11 01:44:00,37.3,32.9,29.46,SW,222,7.0,19.0,84,0.00,,,0.00,Wunderground v.1.15,2013-02-11 07:44:00,
2013-02-11 01:49:00,37.0,32.9,29.46,SW,235,18.0,19.0,85,0.00,,,0.00,Wunderground v.1.15,2013-02-11 07:49:00,
2013-02-11 01:54:00,36.7,32.9,29.46,West,271,7.0,12.0,86,0.00,,,0.00,Wunderground v.1.15,2013-02-11 07:54:00,
2013-02-11 01:59:00,36.4,32.9,29.46,SW,236,10.0,12.0,87,0.00,,,0.00,Wunderground v.1.15,2013-02-11 07:59:00,
2013-02-11 02:05:00,36.0,32.8,29.46,WSW,251,3.0,18.0,88,0.00,,,0.00,Wunderground v.1.15,2013-02-11 08:05:00,
2013-02-11 02:10:00,35.7,32.5,29.46,WSW,240,4.0,18.0,88,0.00,,,0.00,Wunderground v.1.15,2013-02-11 08:10:00,
2013-02-11 02:15:00,35.7,32.5,29.46,SW,223,6.0,25.0,88,0.00,,,0.00,Wunderground v.1.15,2013-02-11 08:15:00,
2013-02-11 02:20:00,35.7,32.5,29.46,SW,236,14.0,25.0,88,0.00,,,0.00,Wunderground v.1.15,2013-02-11 08:20:00,
2013-02-11 02:25:00,35.6,32.1,29.46,WSW,238,17.0,17.0,87,0.00,,,0.00,Wunderground v.1.15,2013-02-11 08:25:00,
2013-02-11 02:30:00,35.5,32.0,29.46,WSW,254,9.0,9.0,87,0.00,,,0.00,Wunderground v.1.15,2013-02-11 08:30:00,
2013-02-11 02:35:00,35.5,31.7,29.46,West,275,4.0,22.0,86,0.00,,,0.00,Wunderground v.1.15,2013-02-11 08:35:00,
2013-02-11 02:40:00,35.4,31.6,29.46,WSW,255,16.0,16.0,86,0.00,,,0.00,Wunderground v.1.15,2013-02-11 08:40:00,
2013-02-11 02:45:00,35.4,31.6,29.46,WNW,283,4.0,21.0,86,0.00,,,0.00,Wunderground v.1.15,2013-02-11 08:45:00,
2013-02-11 02:50:00,35.3,31.2,29.46,WSW,241,9.0,9.0,85,0.00,,,0.00,Wunderground v.1.15,2013-02-11 08:50:00,
2013-02-11 02:55:00,35.2,31.1,29.45,West,269,12.0,23.0,85,0.00,,,0.00,Wunderground v.1.15,2013-02-11 08:55:00,
2013-02-11 03:00:00,35.1,31.0,29.46,West,279,15.0,15.0,85,0.00,,,0.00,Wunderground v.1.15,2013-02-11 09:00:00,
2013-02-11 03:05:00,34.9,30.8,29.46,West,264,9.0,17.0,85,0.00,,,0.00,Wunderground v.1.15,2013-02-11 09:05:00,
2013-02-11 03:10:00,34.7,30.7,29.46,WSW,243,9.0,15.0,85,0.00,,,0.00,Wunderground v.1.15,2013-02-11 09:10:00,
2013-02-11 03:15:00,34.6,30.6,29.46,SW,227,5.0,24.0,85,0.00,,,0.00,Wunderground v.1.15,2013-02-11 09:15:00,
2013-02-11 03:21:00,34.5,30.5,29.46,NW,316,5.0,17.0,85,0.00,,,0.00,Wunderground v.1.15,2013-02-11 09:21:00,
2013-02-11 03:27:00,34.5,30.5,29.46,WSW,252,15.0,20.0,85,0.00,,,0.00,Wunderground v.1.15,2013-02-11 09:27:00,
2013-02-11 03:32:00,34.4,30.4,29.46,West,264,4.0,15.0,85,0.00,,,0.00,Wunderground v.1.15,2013-02-11 09:32:00,
2013-02-11 03:37:00,34.4,30.4,29.46,SW,232,19.0,21.0,85,0.00,,,0.00,Wunderground v.1.15,2013-02-11 09:37:00,
2013-02-11 03:42:00,34.3,30.3,29.46,SW,236,16.0,18.0,85,0.00,,,0.00,Wunderground v.1.15,2013-02-11 09:42:00,
2013-02-11 03:47:00,34.3,30.3,29.46,West,261,3.0,18.0,85,0.00,,,0.00,Wunderground v.1.15,2013-02-11 09:47:00,
2013-02-11 03:52:00,34.2,30.2,29.46,SW,229,12.0,12.0,85,0.00,,,0.00,Wunderground v.1.15,2013-02-11 09:52:00,
2013-02-11 03:57:00,33.3,29.0,29.47,SW,225,16.0,20.0,84,0.00,,,0.00,Wunderground v.1.15,2013-02-11 09:57:00,
2013-02-11 04:02:00,33.2,28.9,29.47,WSW,242,16.0,26.0,84,0.00,,,0.00,Wunderground v.1.15,2013-02-11 10:02:00,
2013-02-11 04:07:00,33.1,28.8,29.47,WSW,250,11.0,26.0,84,0.00,,,0.00,Wunderground v.1.15,2013-02-11 10:07:00,
2013-02-11 04:12:00,33.0,28.7,29.47,WSW,239,9.0,20.0,84,0.00,,,0.00,Wunderground v.1.15,2013-02-11 10:12:00,
2013-02-11 04:18:00,32.9,28.6,29.47,WSW,254,11.0,20.0,84,0.00,,,0.00,Wunderground v.1.15,2013-02-11 10:18:00,
2013-02-11 04:23:00,33.0,28.7,29.47,WSW,248,20.0,24.0,84,0.00,,,0.00,Wunderground v.1.15,2013-02-11 10:23:00,
2013-02-11 04:28:00,32.9,28.0,29.47,West,261,18.0,24.0,82,0.00,,,0.00,Wunderground v.1.15,2013-02-11 10:28:00,
2013-02-11 04:33:00,32.8,28.2,29.47,West,263,7.0,21.0,83,0.00,,,0.00,Wunderground v.1.15,2013-02-11 10:33:00,
2013-02-11 04:39:00,32.6,28.3,29.48,WSW,244,11.0,21.0,84,0.00,,,0.00,Wunderground v.1.15,2013-02-11 10:39:00,
2013-02-11 04:44:00,32.3,28.3,29.49,SW,230,14.0,16.0,85,0.00,,,0.00,Wunderground v.1.15,2013-02-11 10:44:00,
2013-02-11 04:50:00,32.2,28.5,29.48,SW,223,15.0,15.0,86,0.00,,,0.00,Wunderground v.1.15,2013-02-11 10:50:00,
2013-02-11 04:56:00,32.0,28.3,29.48,WSW,238,11.0,15.0,86,0.00,,,0.00,Wunderground v.1.15,2013-02-11 10:56:00,
2013-02-11 05:01:00,31.9,28.5,29.49,WSW,245,14.0,19.0,87,0.00,,,0.00,Wunderground v.1.15,2013-02-11 11:01:00,
2013-02-11 05:06:00,31.6,28.5,29.49,SW,234,18.0,19.0,88,0.00,,,0.00,Wunderground v.1.15,2013-02-11 11:06:00,
2013-02-11 05:11:00,31.4,28.5,29.49,WSW,237,6.0,17.0,89,0.00,,,0.00,Wunderground v.1.15,2013-02-11 11:11:00,
2013-02-11 05:17:00,31.2,28.3,29.49,SW,221,5.0,23.0,89,0.00,,,0.00,Wunderground v.1.15,2013-02-11 11:17:00,
2013-02-11 05:22:00,31.2,28.3,29.49,WNW,292,11.0,11.0,89,0.00,,,0.00,Wunderground v.1.15,2013-02-11 11:22:00,
2013-02-11 05:27:00,31.4,28.0,29.49,SW,229,10.0,22.0,87,0.00,,,0.00,Wunderground v.1.15,2013-02-11 11:27:00,
2013-02-11 05:33:00,31.4,27.4,29.50,SW,232,14.0,23.0,85,0.00,,,0.00,Wunderground v.1.15,2013-02-11 11:33:00,
2013-02-11 05:39:00,31.4,27.1,29.50,WSW,244,27.0,27.0,84,0.00,,,0.00,Wunderground v.1.15,2013-02-11 11:39:00,
2013-02-11 05:44:00,31.4,27.1,29.50,SW,223,7.0,19.0,84,0.00,,,0.00,Wunderground v.1.15,2013-02-11 11:44:00,
2013-02-11 05:49:00,31.4,27.1,29.50,WSW,253,13.0,19.0,84,0.00,,,0.00,Wunderground v.1.15,2013-02-11 11:49:00,
2013-02-11 05:54:00,31.4,27.1,29.50,WSW,251,11.0,16.0,84,0.00,,,0.00,Wunderground v.1.15,2013-02-11 11:54:00,
2013-02-11 05:59:00,31.5,27.2,29.50,WSW,242,7.0,20.0,84,0.00,,,0.00,Wunderground v.1.15,2013-02-11 11:59:00,
2013-02-11 06:04:00,31.5,27.2,29.51,SW,233,12.0,16.0,84,0.00,,,0.00,Wunderground v.1.15,2013-02-11 12:04:00,
2013-02-11 06:09:00,31.6,27.0,29.50,WSW,254,6.0,24.0,83,0.00,,,0.00,Wunderground v.1.15,2013-02-11 12:09:00,
2013-02-11 06:14:00,31.5,26.9,29.50,WSW,258,15.0,20.0,83,0.00,,,0.00,Wunderground v.1.15,2013-02-11 12:14:00,
2013-02-11 06:19:00,31.5,26.9,29.50,WSW,248,9.0,27.0,83,0.00,,,0.00,Wunderground v.1.15,2013-02-11 12:19:00,
2013-02-11 06:24:00,31.5,27.2,29.51,WSW,252,15.0,21.0,84,0.00,,,0.00,Wunderground v.1.15,2013-02-11 12:24:00,
2013-02-11 06:29:00,31.4,27.1,29.51,West,268,7.0,21.0,84,0.00,,,0.00,Wunderground v.1.15,2013-02-11 12:29:00,
2013-02-11 06:35:00,31.4,27.1,29.51,West,259,10.0,16.0,84,0.00,,,0.00,Wunderground v.1.15,2013-02-11 12:35:00,
2013-02-11 06:40:00,31.3,27.0,29.51,West,267,9.0,14.0,84,0.00,,,0.00,Wunderground v.1.15,2013-02-11 12:40:00,
2013-02-11 06:45:00,31.3,27.0,29.51,WSW,237,6.0,21.0,84,0.00,,,0.00,Wunderground v.1.15,2013-02-11 12:45:00,
2013-02-11 06:51:00,31.2,27.2,29.51,SW,223,7.0,7.0,85,0.00,,,0.00,Wunderground v.1.15,2013-02-11 12:51:00,
2013-02-11 06:57:00,31.2,27.2,29.52,SW,233,12.0,18.0,85,0.00,,,0.00,Wunderground v.1.15,2013-02-11 12:57:00,
2013-02-11 07:03:00,31.2,27.2,29.52,SW,229,5.0,16.0,85,0.00,,,0.00,Wunderground v.1.15,2013-02-11 13:03:00,
2013-02-11 07:08:00,31.2,27.2,29.52,SW,218,7.0,16.0,85,0.00,,,0.00,Wunderground v.1.15,2013-02-11 13:08:00,
2013-02-11 07:13:00,31.1,27.1,29.53,WNW,294,8.0,13.0,85,0.00,,,0.00,Wunderground v.1.15,2013-02-11 13:13:00,
2013-02-11 07:18:00,31.2,27.2,29.53,SW,217,10.0,16.0,85,0.00,,,0.00,Wunderground v.1.15,2013-02-11 13:18:00,
2013-02-11 07:23:00,31.2,27.2,29.53,WSW,237,7.0,17.0,85,0.00,,,0.00,Wunderground v.1.15,2013-02-11 13:23:00,
2013-02-11 07:28:00,31.2,27.2,29.54,SW,236,6.0,19.0,85,0.00,,,0.00,Wunderground v.1.15,2013-02-11 13:28:00,
2013-02-11 07:33:00,31.1,27.1,29.54,WSW,238,11.0,20.0,85,0.00,,,0.00,Wunderground v.1.15,2013-02-11 13:33:00,
2013-02-11 07:38:00,31.1,27.1,29.54,SW,221,17.0,20.0,85,0.00,,,0.00,Wunderground v.1.15,2013-02-11 13:38:00,
2013-02-11 07:43:00,32.1,28.1,29.55,WNW,282,17.0,17.0,85,0.00,,,0.00,Wunderground v.1.15,2013-02-11 13:43:00,
2013-02-11 07:48:00,32.1,28.4,29.54,WSW,245,9.0,17.0,86,0.00,,,0.00,Wunderground v.1.15,2013-02-11 13:48:00,
2013-02-11 07:54:00,32.1,28.4,29.55,NNW,327,6.0,15.0,86,0.00,,,0.00,Wunderground v.1.15,2013-02-11 13:54:00,
2013-02-11 07:59:00,32.0,28.3,29.55,SW,236,7.0,15.0,86,0.00,,,0.00,Wunderground v.1.15,2013-02-11 13:59:00,
2013-02-11 08:05:00,32.0,28.3,29.55,West,267,4.0,9.0,86,0.00,,,0.00,Wunderground v.1.15,2013-02-11 14:05:00,
2013-02-11 08:10:00,32.0,28.6,29.56,West,269,4.0,4.0,87,0.00,,,0.00,Wunderground v.1.15,2013-02-11 14:10:00,
2013-02-11 08:15:00,32.0,28.6,29.56,SE,144,2.0,11.0,87,0.00,,,0.00,Wunderground v.1.15,2013-02-11 14:15:00,
2013-02-11 08:20:00,31.9,28.5,29.56,WSW,237,3.0,6.0,87,0.00,,,0.00,Wunderground v.1.15,2013-02-11 14:20:00,
2013-02-11 08:26:00,31.9,28.5,29.56,WNW,294,10.0,13.0,87,0.00,,,0.00,Wunderground v.1.15,2013-02-11 14:26:00,
2013-02-11 08:31:00,31.9,28.5,29.57,SSW,213,5.0,7.0,87,0.00,,,0.00,Wunderground v.1.15,2013-02-11 14:31:00,
2013-02-11 08:37:00,32.0,28.6,29.57,SSW,200,5.0,11.0,87,0.00,,,0.00,Wunderground v.1.15,2013-02-11 14:37:00,
2013-02-11 08:42:00,32.1,28.4,29.57,SE,142,4.0,15.0,86,0.00,,,0.00,Wunderground v.1.15,2013-02-11 14:42:00,
2013-02-11 08:47:00,32.1,28.4,29.57,WNW,288,3.0,15.0,86,0.00,,,0.00,Wunderground v.1.15,2013-02-11 14:47:00,
2013-02-11 08:52:00,32.2,28.5,29.58,West,278,2.0,6.0,86,0.00,,,0.00,Wunderground v.1.15,2013-02-11 14:52:00,
2013-02-11 08:57:00,32.2,28.5,29.58,NW,326,7.0,19.0,86,0.00,,,0.00,Wunderground v.1.15,2013-02-11 14:57:00,
2013-02-11 09:03:00,32.3,28.6,29.58,North,360,4.0,17.0,86,0.00,,,0.00,Wunderground v.1.15,2013-02-11 15:03:00,
2013-02-11 09:08:00,32.3,28.6,29.58,ESE,123,3.0,17.0,86,0.00,,,0.00,Wunderground v.1.15,2013-02-11 15:08:00,
2013-02-11 09:14:00,32.2,28.5,29.59,NNW,331,9.0,18.0,86,0.00,,,0.00,Wunderground v.1.15,2013-02-11 15:14:00,
2013-02-11 09:19:00,32.2,28.5,29.59,WNW,303,5.0,18.0,86,0.00,,,0.00,Wunderground v.1.15,2013-02-11 15:19:00,
2013-02-11 09:24:00,32.2,28.5,29.59,WSW,241,7.0,14.0,86,0.00,,,0.00,Wunderground v.1.15,2013-02-11 15:24:00,
2013-02-11 09:29:00,32.1,28.7,29.59,WNW,285,7.0,15.0,87,0.00,,,0.00,Wunderground v.1.15,2013-02-11 15:29:00,
2013-02-11 09:34:00,32.1,28.7,29.60,NW,324,12.0,15.0,87,0.00,,,0.00,Wunderground v.1.15,2013-02-11 15:34:00,
2013-02-11 09:39:00,32.1,28.7,29.60,NW,324,6.0,16.0,87,0.00,,,0.00,Wunderground v.1.15,2013-02-11 15:39:00,
2013-02-11 09:44:00,32.1,28.7,29.60,NW,312,9.0,19.0,87,0.00,,,0.00,Wunderground v.1.15,2013-02-11 15:44:00,
2013-02-11 09:49:00,32.1,28.7,29.61,WNW,303,9.0,19.0,87,0.00,,,0.00,Wunderground v.1.15,2013-02-11 15:49:00,
2013-02-11 09:55:00,32.1,28.7,29.61,WNW,287,4.0,14.0,87,0.00,,,0.00,Wunderground v.1.15,2013-02-11 15:55:00,
2013-02-11 10:01:00,32.1,28.7,29.61,WSW,242,3.0,7.0,87,0.00,,,0.00,Wunderground v.1.15,2013-02-11 16:01:00,
2013-02-11 10:06:00,32.2,28.8,29.62,East,101,3.0,16.0,87,0.00,,,0.00,Wunderground v.1.15,2013-02-11 16:06:00,
2013-02-11 10:11:00,32.2,28.5,29.62,NW,316,6.0,8.0,86,0.00,,,0.00,Wunderground v.1.15,2013-02-11 16:11:00,
2013-02-11 10:16:00,32.3,28.6,29.63,SSW,205,0.0,19.0,86,0.00,,,0.00,Wunderground v.1.15,2013-02-11 16:16:00,
2013-02-11 10:21:00,32.3,28.6,29.63,WNW,284,14.0,14.0,86,0.00,,,0.00,Wunderground v.1.15,2013-02-11 16:21:00,
2013-02-11 10:27:00,32.4,28.7,29.63,NNW,327,3.0,19.0,86,0.00,,,0.00,Wunderground v.1.15,2013-02-11 16:27:00,
2013-02-11 10:32:00,32.4,28.7,29.64,WNW,301,16.0,16.0,86,0.00,,,0.00,Wunderground v.1.15,2013-02-11 16:32:00,
2013-02-11 10:37:00,32.4,28.7,29.64,East,89,3.0,19.0,86,0.00,,,0.00,Wunderground v.1.15,2013-02-11 16:37:00,
2013-02-11 10:42:00,32.5,28.8,29.64,West,265,4.0,12.0,86,0.00,,,0.00,Wunderground v.1.15,2013-02-11 16:42:00,
2013-02-11 10:47:00,32.5,28.8,29.65,WNW,296,9.0,12.0,86,0.00,,,0.00,Wunderground v.1.15,2013-02-11 16:47:00,
2013-02-11 10:52:00,32.5,28.8,29.65,NNW,346,6.0,6.0,86,0.00,,,0.00,Wunderground v.1.15,2013-02-11 16:52:00,
2013-02-11 10:57:00,32.5,28.8,29.65,WNW,296,10.0,14.0,86,0.00,,,0.00,Wunderground v.1.15,2013-02-11 16:57:00,
2013-02-11 11:03:00,32.5,28.8,29.65,NW,304,5.0,20.0,86,0.00,,,0.00,Wunderground v.1.15,2013-02-11 17:03:00,
2013-02-11 11:08:00,32.6,29.2,29.65,NW,320,3.0,20.0,87,0.00,,,0.00,Wunderground v.1.15,2013-02-11 17:08:00,
2013-02-11 11:13:00,32.7,29.3,29.65,NW,307,10.0,20.0,87,0.00,,,0.00,Wunderground v.1.15,2013-02-11 17:13:00,
2013-02-11 11:19:00,31.7,28.0,29.66,SW,226,7.0,20.0,86,0.00,,,0.00,Wunderground v.1.15,2013-02-11 17:19:00,
2013-02-11 11:24:00,31.7,28.0,29.66,SW,219,9.0,14.0,86,0.00,,,0.00,Wunderground v.1.15,2013-02-11 17:24:00,
2013-02-11 11:29:00,31.8,28.1,29.66,WSW,254,7.0,14.0,86,0.00,,,0.00,Wunderground v.1.15,2013-02-11 17:29:00,
2013-02-11 11:34:00,31.8,28.1,29.66,West,261,7.0,18.0,86,0.00,,,0.00,Wunderground v.1.15,2013-02-11 17:34:00,
2013-02-11 11:40:00,31.9,28.2,29.66,WNW,286,5.0,5.0,86,0.00,,,0.00,Wunderground v.1.15,2013-02-11 17:40:00,
2013-02-11 11:45:00,31.9,28.2,29.66,WSW,240,3.0,14.0,86,0.00,,,0.00,Wunderground v.1.15,2013-02-11 17:45:00,
2013-02-11 11:50:00,31.9,28.2,29.67,WSW,257,3.0,6.0,86,0.00,,,0.00,Wunderground v.1.15,2013-02-11 17:50:00,
2013-02-11 11:55:00,32.0,28.3,29.66,WSW,248,3.0,13.0,86,0.00,,,0.00,Wunderground v.1.15,2013-02-11 17:55:00,
2013-02-11 12:00:00,32.1,28.4,29.66,WSW,244,9.0,9.0,86,0.00,,,0.00,Wunderground v.1.15,2013-02-11 18:00:00,
2013-02-11 12:05:00,32.1,28.4,29.67,SW,232,5.0,12.0,86,0.00,,,0.00,Wunderground v.1.15,2013-02-11 18:05:00,
2013-02-11 12:10:00,32.0,28.0,29.67,WSW,257,6.0,6.0,85,0.00,,,0.00,Wunderground v.1.15,2013-02-11 18:10:00,
2013-02-11 12:15:00,31.9,27.9,29.68,WSW,248,4.0,11.0,85,0.00,,,0.00,Wunderground v.1.15,2013-02-11 18:15:00,
2013-02-11 12:20:00,31.9,27.9,29.69,WSW,242,4.0,7.0,85,0.00,,,0.00,Wunderground v.1.15,2013-02-11 18:20:00,
2013-02-11 12:26:00,31.7,27.7,29.69,WNW,286,2.0,13.0,85,0.00,,,0.00,Wunderground v.1.15,2013-02-11 18:26:00,
2013-02-11 12:31:00,31.6,27.6,29.69,West,260,2.0,2.0,85,0.00,,,0.00,Wunderground v.1.15,2013-02-11 18:31:00,
2013-02-11 12:36:00,31.5,27.5,29.69,WSW,254,2.0,10.0,85,0.00,,,0.00,Wunderground v.1.15,2013-02-11 18:36:00,
2013-02-11 12:41:00,31.4,27.4,29.70,West,275,3.0,6.0,85,0.00,,,0.00,Wunderground v.1.15,2013-02-11 18:41:00,
2013-02-11 12:46:00,31.3,27.3,29.70,West,261,4.0,13.0,85,0.00,,,0.00,Wunderground v.1.15,2013-02-11 18:46:00,
2013-02-11 12:51:00,31.0,27.0,29.71,West,275,4.0,7.0,85,0.00,,,0.00,Wunderground v.1.15,2013-02-11 18:51:00,
2013-02-11 12:56:00,30.9,26.9,29.71,WNW,291,7.0,15.0,85,0.00,,,0.00,Wunderground v.1.15,2013-02-11 18:56:00,
2013-02-11 13:01:00,30.8,26.8,29.71,West,269,9.0,9.0,85,0.00,,,0.00,Wunderground v.1.15,2013-02-11 19:01:00,
2013-02-11 13:06:00,30.7,26.4,29.72,West,273,9.0,21.0,84,0.00,,,0.00,Wunderground v.1.15,2013-02-11 19:06:00,
2013-02-11 13:11:00,30.6,26.3,29.72,WSW,248,1.0,16.0,84,0.00,,,0.00,Wunderground v.1.15,2013-02-11 19:11:00,
2013-02-11 13:16:00,30.5,26.2,29.72,West,279,5.0,18.0,84,0.00,,,0.00,Wunderground v.1.15,2013-02-11 19:16:00,
2013-02-11 13:21:00,30.5,26.2,29.73,WNW,286,6.0,18.0,84,0.00,,,0.00,Wunderground v.1.15,2013-02-11 19:21:00,
2013-02-11 13:26:00,30.5,26.2,29.73,WSW,253,5.0,18.0,84,0.00,,,0.00,Wunderground v.1.15,2013-02-11 19:26:00,
2013-02-11 13:31:00,30.4,26.1,29.74,West,277,4.0,10.0,84,0.00,,,0.00,Wunderground v.1.15,2013-02-11 19:31:00,
2013-02-11 13:37:00,30.4,26.1,29.74,West,269,13.0,13.0,84,0.00,,,0.00,Wunderground v.1.15,2013-02-11 19:37:00,
2013-02-11 13:42:00,30.3,25.8,29.74,West,271,5.0,6.0,83,0.00,,,0.00,Wunderground v.1.15,2013-02-11 19:42:00,
2013-02-11 13:47:00,30.3,25.8,29.74,West,280,9.0,15.0,83,0.00,,,0.00,Wunderground v.1.15,2013-02-11 19:47:00,
2013-02-11 13:52:00,30.3,25.8,29.74,West,265,3.0,12.0,83,0.00,,,0.00,Wunderground v.1.15,2013-02-11 19:52:00,
2013-02-11 13:57:00,30.2,25.7,29.75,WNW,302,3.0,14.0,83,0.00,,,0.00,Wunderground v.1.15,2013-02-11 19:57:00,
2013-02-11 14:02:00,30.1,25.3,29.75,WNW,296,9.0,16.0,82,0.00,,,0.00,Wunderground v.1.15,2013-02-11 20:02:00,
2013-02-11 14:07:00,30.0,25.2,29.75,West,273,3.0,16.0,82,0.00,,,0.00,Wunderground v.1.15,2013-02-11 20:07:00,
2013-02-11 14:12:00,29.8,24.7,29.76,WNW,283,3.0,9.0,81,0.00,,,0.00,Wunderground v.1.15,2013-02-11 20:12:00,
2013-02-11 14:17:00,29.7,24.9,29.76,West,269,3.0,17.0,82,0.00,,,0.00,Wunderground v.1.15,2013-02-11 20:17:00,
2013-02-11 14:22:00,29.8,25.0,29.76,NNW,341,6.0,9.0,82,0.00,,,0.00,Wunderground v.1.15,2013-02-11 20:22:00,
2013-02-11 14:27:00,29.8,24.7,29.77,NW,309,5.0,13.0,81,0.00,,,0.00,Wunderground v.1.15,2013-02-11 20:27:00,
2013-02-11 14:32:00,29.7,24.3,29.77,West,270,4.0,17.0,80,0.00,,,0.00,Wunderground v.1.15,2013-02-11 20:32:00,
2013-02-11 14:37:00,29.7,24.3,29.77,NW,309,11.0,17.0,80,0.00,,,0.00,Wunderground v.1.15,2013-02-11 20:37:00,
2013-02-11 14:42:00,29.7,24.3,29.78,WSW,240,4.0,9.0,80,0.00,,,0.00,Wunderground v.1.15,2013-02-11 20:42:00,
2013-02-11 14:47:00,29.6,24.2,29.78,WSW,248,7.0,12.0,80,0.00,,,0.00,Wunderground v.1.15,2013-02-11 20:47:00,
2013-02-11 14:52:00,29.6,24.5,29.78,West,269,3.0,11.0,81,0.00,,,0.00,Wunderground v.1.15,2013-02-11 20:52:00,
2013-02-11 14:57:00,29.4,24.3,29.79,WNW,292,13.0,18.0,81,0.00,,,0.00,Wunderground v.1.15,2013-02-11 20:57:00,
2013-02-11 15:02:00,29.4,24.3,29.79,West,276,3.0,6.0,81,0.00,,,0.00,Wunderground v.1.15,2013-02-11 21:02:00,
2013-02-11 15:07:00,29.5,24.1,29.80,West,261,2.0,16.0,80,0.00,,,0.00,Wunderground v.1.15,2013-02-11 21:07:00,
2013-02-11 15:13:00,29.5,24.1,29.80,West,271,11.0,14.0,80,0.00,,,0.00,Wunderground v.1.15,2013-02-11 21:13:00,
2013-02-11 15:18:00,29.4,24.0,29.80,West,265,10.0,14.0,80,0.00,,,0.00,Wunderground v.1.15,2013-02-11 21:18:00,
2013-02-11 15:23:00,29.4,24.0,29.80,West,260,3.0,15.0,80,0.00,,,0.00,Wunderground v.1.15,2013-02-11 21:23:00,
2013-02-11 15:28:00,29.4,24.0,29.81,West,269,2.0,15.0,80,0.00,,,0.00,Wunderground v.1.15,2013-02-11 21:28:00,
2013-02-11 15:33:00,29.4,23.7,29.81,West,277,2.0,13.0,79,0.00,,,0.00,Wunderground v.1.15,2013-02-11 21:33:00,
2013-02-11 15:38:00,29.4,23.7,29.81,West,271,3.0,14.0,79,0.00,,,0.00,Wunderground v.1.15,2013-02-11 21:38:00,
2013-02-11 15:43:00,29.5,23.8,29.81,West,262,7.0,11.0,79,0.00,,,0.00,Wunderground v.1.15,2013-02-11 21:43:00,
2013-02-11 15:48:00,29.4,23.7,29.82,West,273,4.0,15.0,79,0.00,,,0.00,Wunderground v.1.15,2013-02-11 21:48:00,
2013-02-11 15:53:00,29.4,23.4,29.82,West,274,7.0,11.0,78,0.00,,,0.00,Wunderground v.1.15,2013-02-11 21:53:00,
2013-02-11 15:58:00,29.4,23.7,29.82,NW,311,7.0,12.0,79,0.00,,,0.00,Wunderground v.1.15,2013-02-11 21:58:00,
2013-02-11 16:04:00,29.3,23.3,29.83,WNW,296,5.0,8.0,78,0.00,,,0.00,Wunderground v.1.15,2013-02-11 22:04:00,
2013-02-11 16:09:00,29.2,23.2,29.83,WNW,287,5.0,12.0,78,0.00,,,0.00,Wunderground v.1.15,2013-02-11 22:09:00,
2013-02-11 16:14:00,29.2,23.2,29.83,NW,304,1.0,14.0,78,0.00,,,0.00,Wunderground v.1.15,2013-02-11 22:14:00,
2013-02-11 16:19:00,29.1,23.1,29.84,WNW,296,5.0,14.0,78,0.00,,,0.00,Wunderground v.1.15,2013-02-11 22:19:00,
2013-02-11 16:24:00,29.0,23.0,29.84,West,265,3.0,12.0,78,0.00,,,0.00,Wunderground v.1.15,2013-02-11 22:24:00,
2013-02-11 16:29:00,29.0,23.0,29.84,West,263,4.0,12.0,78,0.00,,,0.00,Wunderground v.1.15,2013-02-11 22:29:00,
2013-02-11 16:34:00,28.9,22.9,29.85,West,275,5.0,9.0,78,0.00,,,0.00,Wunderground v.1.15,2013-02-11 22:34:00,
2013-02-11 16:39:00,28.9,23.2,29.85,NW,308,3.0,10.0,79,0.00,,,0.00,Wunderground v.1.15,2013-02-11 22:39:00,
2013-02-11 16:45:00,28.8,23.1,29.85,WNW,294,1.0,7.0,79,0.00,,,0.00,Wunderground v.1.15,2013-02-11 22:45:00,
2013-02-11 16:50:00,28.8,23.1,29.86,WNW,284,3.0,5.0,79,0.00,,,0.00,Wunderground v.1.15,2013-02-11 22:50:00,
2013-02-11 16:55:00,28.7,23.0,29.86,West,263,2.0,8.0,79,0.00,,,0.00,Wunderground v.1.15,2013-02-11 22:55:00,
2013-02-11 17:00:00,28.6,22.9,29.87,West,280,3.0,3.0,79,0.00,,,0.00,Wunderground v.1.15,2013-02-11 23:00:00,
2013-02-11 17:05:00,28.5,23.1,29.87,WNW,289,2.0,7.0,80,0.00,,,0.00,Wunderground v.1.15,2013-02-11 23:05:00,
2013-02-11 17:10:00,28.4,23.0,29.88,WNW,300,3.0,3.0,80,0.00,,,0.00,Wunderground v.1.15,2013-02-11 23:10:00,
2013-02-11 17:15:00,28.3,22.9,29.88,WSW,256,3.0,10.0,80,0.00,,,0.00,Wunderground v.1.15,2013-02-11 23:15:00,
2013-02-11 17:20:00,28.3,22.9,29.88,West,276,0.0,4.0,80,0.00,,,0.00,Wunderground v.1.15,2013-02-11 23:20:00,
2013-02-11 17:25:00,28.2,22.8,29.88,West,276,4.0,14.0,80,0.00,,,0.00,Wunderground v.1.15,2013-02-11 23:25:00,
2013-02-11 17:30:00,28.1,22.7,29.89,NW,309,3.0,3.0,80,0.00,,,0.00,Wunderground v.1.15,2013-02-11 23:30:00,
2013-02-11 17:36:00,28.1,22.4,29.89,West,279,5.0,14.0,79,0.00,,,0.00,Wunderground v.1.15,2013-02-11 23:36:00,
2013-02-11 17:41:00,28.0,22.3,29.90,West,275,13.0,13.0,79,0.00,,,0.00,Wunderground v.1.15,2013-02-11 23:41:00,
2013-02-11 17:46:00,29.1,23.7,29.90,NW,319,11.0,15.0,80,0.00,,,0.00,Wunderground v.1.15,2013-02-11 23:46:00,
2013-02-11 17:51:00,29.0,23.6,29.91,NW,304,14.0,14.0,80,0.00,,,0.00,Wunderground v.1.15,2013-02-11 23:51:00,
2013-02-11 17:56:00,28.9,23.2,29.90,NW,309,11.0,15.0,79,0.00,,,0.00,Wunderground v.1.15,2013-02-11 23:56:00,
2013-02-11 18:01:00,28.9,23.2,29.91,NW,311,10.0,18.0,79,0.00,,,0.00,Wunderground v.1.15,2013-02-12 00:01:00,
2013-02-11 18:07:00,28.9,23.2,29.91,WNW,288,16.0,18.0,79,0.00,,,0.00,Wunderground v.1.15,2013-02-12 00:07:00,
2013-02-11 18:12:00,28.8,23.1,29.92,NNW,344,4.0,13.0,79,0.00,,,0.00,Wunderground v.1.15,2013-02-12 00:12:00,
2013-02-11 18:17:00,28.8,23.1,29.92,NW,306,11.0,17.0,79,0.00,,,0.00,Wunderground v.1.15,2013-02-12 00:17:00,
2013-02-11 18:22:00,28.7,23.0,29.92,WNW,300,13.0,15.0,79,0.00,,,0.00,Wunderground v.1.15,2013-02-12 00:22:00,
2013-02-11 18:27:00,28.7,23.0,29.92,NW,315,5.0,17.0,79,0.00,,,0.00,Wunderground v.1.15,2013-02-12 00:27:00,
2013-02-11 18:32:00,28.6,22.9,29.93,NW,321,6.0,15.0,79,0.00,,,0.00,Wunderground v.1.15,2013-02-12 00:32:00,
2013-02-11 18:38:00,28.6,22.9,29.93,NNW,328,10.0,17.0,79,0.00,,,0.00,Wunderground v.1.15,2013-02-12 00:38:00,
2013-02-11 18:43:00,28.6,22.9,29.94,West,273,7.0,13.0,79,0.00,,,0.00,Wunderground v.1.15,2013-02-12 00:43:00,
2013-02-11 18:48:00,28.5,22.8,29.94,NW,317,14.0,14.0,79,0.00,,,0.00,Wunderground v.1.15,2013-02-12 00:48:00,
2013-02-11 18:53:00,28.4,22.7,29.94,NW,313,5.0,13.0,79,0.00,,,0.00,Wunderground v.1.15,2013-02-12 00:53:00,
2013-02-11 18:59:00,28.5,22.8,29.94,NW,321,8.0,19.0,79,0.00,,,0.00,Wunderground v.1.15,2013-02-12 00:59:00,
2013-02-11 19:04:00,28.4,22.7,29.94,NW,309,9.0,18.0,79,0.00,,,0.00,Wunderground v.1.15,2013-02-12 01:04:00,
2013-02-11 19:09:00,28.4,22.7,29.95,NW,318,5.0,18.0,79,0.00,,,0.00,Wunderground v.1.15,2013-02-12 01:09:00,
2013-02-11 19:14:00,28.4,22.7,29.95,NW,308,8.0,13.0,79,0.00,,,0.00,Wunderground v.1.15,2013-02-12 01:14:00,
2013-02-11 19:20:00,28.3,22.3,29.95,NNW,337,7.0,7.0,78,0.00,,,0.00,Wunderground v.1.15,2013-02-12 01:20:00,
2013-02-11 19:25:00,28.3,22.3,29.95,NW,312,13.0,18.0,78,0.00,,,0.00,Wunderground v.1.15,2013-02-12 01:25:00,
2013-02-11 19:30:00,28.3,22.3,29.95,WNW,288,10.0,11.0,78,0.00,,,0.00,Wunderground v.1.15,2013-02-12 01:30:00,
2013-02-11 19:35:00,28.3,22.3,29.95,NW,312,9.0,14.0,78,0.00,,,0.00,Wunderground v.1.15,2013-02-12 01:35:00,
2013-02-11 19:40:00,28.3,22.3,29.95,WNW,296,9.0,9.0,78,0.00,,,0.00,Wunderground v.1.15,2013-02-12 01:40:00,
2013-02-11 19:45:00,28.2,22.5,29.96,NW,308,11.0,14.0,79,0.00,,,0.00,Wunderground v.1.15,2013-02-12 01:45:00,
2013-02-11 19:50:00,28.2,22.5,29.96,NW,307,9.0,11.0,79,0.00,,,0.00,Wunderground v.1.15,2013-02-12 01:50:00,
2013-02-11 19:56:00,28.1,22.4,29.96,NW,314,4.0,11.0,79,0.00,,,0.00,Wunderground v.1.15,2013-02-12 01:56:00,
2013-02-11 20:01:00,28.1,22.7,29.96,WNW,296,9.0,9.0,80,0.00,,,0.00,Wunderground v.1.15,2013-02-12 02:01:00,
2013-02-11 20:06:00,28.0,22.6,29.96,NW,312,8.0,12.0,80,0.00,,,0.00,Wunderground v.1.15,2013-02-12 02:06:00,
2013-02-11 20:11:00,28.0,22.6,29.97,WNW,298,4.0,12.0,80,0.00,,,0.00,Wunderground v.1.15,2013-02-12 02:11:00,
2013-02-11 20:16:00,28.0,22.6,29.97,NW,309,4.0,14.0,80,0.00,,,0.00,Wunderground v.1.15,2013-02-12 02:16:00,
2013-02-11 20:22:00,27.9,22.5,29.97,NNW,331,6.0,11.0,80,0.00,,,0.00,Wunderground v.1.15,2013-02-12 02:22:00,
2013-02-11 20:27:00,27.9,22.5,29.97,NW,315,4.0,12.0,80,0.00,,,0.00,Wunderground v.1.15,2013-02-12 02:27:00,
2013-02-11 20:32:00,27.8,22.7,29.98,WNW,296,2.0,11.0,81,0.00,,,0.00,Wunderground v.1.15,2013-02-12 02:32:00,
2013-02-11 20:37:00,27.7,22.6,29.98,NW,311,7.0,15.0,81,0.00,,,0.00,Wunderground v.1.15,2013-02-12 02:37:00,
2013-02-11 20:42:00,27.7,22.3,29.98,NW,311,7.0,10.0,80,0.00,,,0.00,Wunderground v.1.15,2013-02-12 02:42:00,
2013-02-11 20:47:00,27.7,22.3,29.98,NW,318,7.0,11.0,80,0.00,,,0.00,Wunderground v.1.15,2013-02-12 02:47:00,
2013-02-11 20:52:00,27.7,22.3,29.98,NW,315,4.0,9.0,80,0.00,,,0.00,Wunderground v.1.15,2013-02-12 02:52:00,
2013-02-11 20:57:00,27.6,22.2,29.99,NW,318,9.0,17.0,80,0.00,,,0.00,Wunderground v.1.15,2013-02-12 02:57:00,
2013-02-11 21:03:00,27.6,22.2,29.98,WNW,292,7.0,7.0,80,0.00,,,0.00,Wunderground v.1.15,2013-02-12 03:03:00,
2013-02-11 21:08:00,27.6,22.2,29.99,NNW,329,7.0,12.0,80,0.00,,,0.00,Wunderground v.1.15,2013-02-12 03:08:00,
2013-02-11 21:13:00,27.5,22.1,29.99,NW,313,5.0,11.0,80,0.00,,,0.00,Wunderground v.1.15,2013-02-12 03:13:00,
2013-02-11 21:18:00,27.5,22.1,29.99,NW,321,16.0,18.0,80,0.00,,,0.00,Wunderground v.1.15,2013-02-12 03:18:00,
2013-02-11 21:23:00,27.4,22.0,29.99,NW,316,14.0,14.0,80,0.00,,,0.00,Wunderground v.1.15,2013-02-12 03:23:00,
2013-02-11 21:28:00,27.4,22.0,29.99,NW,312,9.0,14.0,80,0.00,,,0.00,Wunderground v.1.15,2013-02-12 03:28:00,
2013-02-11 21:34:00,27.3,21.9,29.99,WNW,301,7.0,18.0,80,0.00,,,0.00,Wunderground v.1.15,2013-02-12 03:34:00,
2013-02-11 21:39:00,27.3,22.2,29.99,NW,309,12.0,18.0,81,0.00,,,0.00,Wunderground v.1.15,2013-02-12 03:39:00,
2013-02-11 21:44:00,27.3,22.2,29.99,NW,310,11.0,15.0,81,0.00,,,0.00,Wunderground v.1.15,2013-02-12 03:44:00,
2013-02-11 21:49:00,27.2,22.1,29.99,NW,325,8.0,15.0,81,0.00,,,0.00,Wunderground v.1.15,2013-02-12 03:49:00,
2013-02-11 21:54:00,27.2,22.1,29.99,WNW,292,5.0,14.0,81,0.00,,,0.00,Wunderground v.1.15,2013-02-12 03:54:00,
2013-02-11 21:59:00,27.2,22.1,29.99,NW,312,7.0,14.0,81,0.00,,,0.00,Wunderground v.1.15,2013-02-12 03:59:00,
2013-02-11 22:05:00,27.1,22.0,30.00,NNW,330,11.0,15.0,81,0.00,,,0.00,Wunderground v.1.15,2013-02-12 04:05:00,
2013-02-11 22:10:00,27.1,22.0,29.99,WNW,303,5.0,10.0,81,0.00,,,0.00,Wunderground v.1.15,2013-02-12 04:10:00,
2013-02-11 22:15:00,27.1,22.0,30.00,NNW,329,9.0,10.0,81,0.00,,,0.00,Wunderground v.1.15,2013-02-12 04:15:00,
2013-02-11 22:21:00,27.1,22.0,30.00,NW,307,4.0,11.0,81,0.00,,,0.00,Wunderground v.1.15,2013-02-12 04:21:00,
2013-02-11 22:26:00,27.1,22.0,30.00,NW,317,11.0,14.0,81,0.00,,,0.00,Wunderground v.1.15,2013-02-12 04:26:00,
2013-02-11 22:31:00,27.1,21.7,30.00,WNW,303,7.0,12.0,80,0.00,,,0.00,Wunderground v.1.15,2013-02-12 04:31:00,
2013-02-11 22:36:00,27.1,21.7,30.00,NW,320,5.0,12.0,80,0.00,,,0.00,Wunderground v.1.15,2013-02-12 04:36:00,
2013-02-11 22:41:00,27.0,21.9,30.00,NW,306,4.0,11.0,81,0.00,,,0.00,Wunderground v.1.15,2013-02-12 04:41:00,
2013-02-11 22:46:00,27.0,21.9,30.00,NW,306,7.0,17.0,81,0.00,,,0.00,Wunderground v.1.15,2013-02-12 04:46:00,
2013-02-11 22:52:00,27.0,21.9,30.00,NW,325,11.0,11.0,81,0.00,,,0.00,Wunderground v.1.15,2013-02-12 04:52:00,
2013-02-11 22:57:00,27.0,21.9,30.00,WNW,303,10.0,13.0,81,0.00,,,0.00,Wunderground v.1.15,2013-02-12 04:57:00,
2013-02-11 23:00:00,26.9,21.8,30.01,NNW,333,10.0,10.0,81,0.00,,,0.00,Wunderground v.1.15,2013-02-12 05:00:00,
2013-02-11 23:05:00,26.9,21.8,30.01,NW,314,6.0,10.0,81,0.00,,,0.00,Wunderground v.1.15,2013-02-12 05:05:00,
2013-02-11 23:10:00,26.9,21.8,30.01,NW,311,14.0,16.0,81,0.00,,,0.00,Wunderground v.1.15,2013-02-12 05:10:00,
2013-02-11 23:15:00,26.9,21.8,30.01,NW,324,12.0,19.0,81,0.00,,,0.00,Wunderground v.1.15,2013-02-12 05:15:00,
2013-02-11 23:21:00,26.9,21.8,30.01,NW,316,10.0,10.0,81,0.00,,,0.00,Wunderground v.1.15,2013-02-12 05:21:00,
2013-02-11 23:26:00,26.9,21.8,30.01,WNW,290,10.0,15.0,81,0.00,,,0.00,Wunderground v.1.15,2013-02-12 05:26:00,
2013-02-11 23:31:00,26.8,22.0,30.01,WNW,300,7.0,10.0,82,0.00,,,0.00,Wunderground v.1.15,2013-02-12 05:31:00,
2013-02-11 23:37:00,26.8,22.0,30.01,NW,320,6.0,10.0,82,0.00,,,0.00,Wunderground v.1.15,2013-02-12 05:37:00,
2013-02-11 23:42:00,26.7,21.7,30.01,NW,320,12.0,12.0,81,0.00,,,0.00,Wunderground v.1.15,2013-02-12 05:42:00,
2013-02-11 23:47:00,26.7,21.7,30.01,WNW,298,5.0,13.0,81,0.00,,,0.00,Wunderground v.1.15,2013-02-12 05:47:00,
2013-02-11 23:52:00,26.7,21.7,30.02,NW,323,5.0,9.0,81,0.00,,,0.00,Wunderground v.1.15,2013-02-12 05:52:00,
2013-02-11 23:57:00,26.7,21.7,30.02,WNW,286,5.0,12.0,81,0.00,,,0.00,Wunderground v.1.15,2013-02-12 05:57:00,